Big Rapids, MI

1:22 AM EST on January 17, 2017 (GMT -0500)
Roben-Hood

Weather History for KRQB - July, 2012

Change the Weather History Date:

Thursday, July 12, 2012

  Actual Average Record
Temperature  
Mean Temperature 68 °F -  
Max Temperature 86 °F 81 °F 92 °F (1987)
Min Temperature 51 °F 56 °F 43 °F (1978)
Cooling Degree Days 4    
Growing Degree Days 18 (Base 50)    
Moisture  
Dew Point 54 °F    
Average Humidity 62    
Maximum Humidity 100    
Minimum Humidity 28    
Precipitation  
Precipitation 0.00 in - - ()
Sea Level Pressure  
Sea Level Pressure 30.13 in    
Wind  
Wind Speed 4 mph (SW)    
Max Wind Speed 10 mph    
Max Gust Speed -    
Visibility 10 miles    
Events      
Averages and records for this station are not official NWS values.
T = Trace of Precipitation, MM = Missing Value Source: NWS Daily Summary

Daily Weather History Graph

Daily Weather History Graph

Search for Another Location

Airport or City:

Trip Planner

Search our weather history database for the weather conditions in past years. The results will help you decide how hot, cold, wet, or windy it might be!

Date:

Astronomy

Jul. 12, 2012 Rise Set
Actual Time 6:11 AM EDT 9:23 PM EDT
Civil Twilight 5:36 AM EDT 9:57 PM EDT
Nautical Twilight 4:51 AM EDT 10:42 PM EDT
Astronomical Twilight 3:56 AM EDT 11:37 PM EDT
Moon 1:19 AM EDT (7/12) 3:52 PM EDT (7/12)
Length of Visible Light 16h 20m
Length of Day
15h 11m
Waning Crescent, 35% of the Moon is Illuminated
Jul 12
Waning Crescent
Jul 19
New
Jul 26
First Quarter
Aug 1
Full
Aug 9
Last Quarter

Hourly Weather History & Observations

Time (EDT) Temp. Heat Index Dew Point Humidity Pressure Visibility Wind Dir Wind Speed Gust Speed Precip Events Conditions
12:14 AM 58.5 °F - 54.7 °F 87% 30.14 in 10.0 mi Calm Calm - N/A   Clear
12:34 AM 58.1 °F - 54.5 °F 88% 30.14 in 10.0 mi WNW 3.5 mph - N/A   Clear
12:55 AM 58.5 °F - 54.5 °F 87% 30.13 in 10.0 mi Calm Calm - N/A   Clear
1:14 AM 57.7 °F - 54.0 °F 87% 30.13 in 10.0 mi Calm Calm - N/A   Clear
1:34 AM 55.2 °F - 53.8 °F 95% 30.14 in 10.0 mi SSW 10.4 mph - N/A   Clear
1:55 AM 54.9 °F - 54.3 °F 98% 30.13 in 10.0 mi NNW 3.5 mph - N/A   Clear
2:14 AM 55.6 °F - 54.5 °F 96% 30.14 in 10.0 mi SSW 9.2 mph - N/A   Clear
2:25 AM 55.6 °F - 54.7 °F 97% 30.14 in 10.0 mi SSW 8.1 mph - N/A   Clear
2:55 AM 54.3 °F - 53.4 °F 97% 30.14 in 10.0 mi Calm Calm - N/A   Clear
3:14 AM 53.2 °F - 52.9 °F 99% 30.14 in 10.0 mi Calm Calm - N/A   Clear
3:34 AM 53.4 °F - 53.1 °F 99% 30.14 in 10.0 mi WNW 8.1 mph - N/A   Clear
3:55 AM 53.8 °F - 53.6 °F 99% 30.14 in 10.0 mi WNW 9.2 mph - N/A   Clear
4:14 AM 52.9 °F - 52.5 °F 99% 30.14 in 10.0 mi West 6.9 mph - N/A   Clear
4:32 AM 52.2 °F - 52.2 °F 100% 30.14 in 10.0 mi SE 4.6 mph - N/A   Clear
4:55 AM 52.9 °F - 52.7 °F 99% 30.13 in 10.0 mi WNW 3.5 mph - N/A   Clear
5:14 AM 52.3 °F - 52.2 °F 99% 30.14 in 10.0 mi WNW 9.2 mph - N/A   Clear
5:34 AM 52.0 °F - 51.8 °F 99% 30.14 in 10.0 mi West 9.2 mph - N/A   Clear
5:54 AM 51.4 °F - 51.3 °F 99% 30.14 in 10.0 mi Calm Calm - N/A   Clear
6:15 AM 51.4 °F - 51.4 °F 100% 30.14 in 10.0 mi West 10.4 mph - N/A   Clear
6:35 AM 51.4 °F - 51.4 °F 100% 30.14 in 10.0 mi Calm Calm - N/A   Clear
6:54 AM 52.9 °F - 52.9 °F 100% 30.15 in 10.0 mi WNW 5.8 mph - N/A   Clear
7:15 AM 54.7 °F - 53.8 °F 97% 30.15 in 10.0 mi NW 4.6 mph - N/A   Clear
7:35 AM 56.3 °F - 54.9 °F 95% 30.16 in 10.0 mi NNE 4.6 mph - N/A   Clear
7:54 AM 58.6 °F - 55.8 °F 90% 30.16 in 10.0 mi North 3.5 mph - N/A   Clear
8:14 AM 60.8 °F - 55.4 °F 82% 30.16 in 10.0 mi Calm Calm - N/A   Scattered Clouds
8:34 AM 63.5 °F - 56.1 °F 77% 30.16 in 10.0 mi Calm Calm - N/A   Scattered Clouds
8:54 AM 65.5 °F - 56.3 °F 72% 30.16 in 10.0 mi Calm Calm - N/A   Clear
9:15 AM 68.9 °F - 57.2 °F 66% 30.17 in 10.0 mi Calm Calm - N/A   Scattered Clouds
9:34 AM 72.1 °F - 57.6 °F 60% 30.17 in 10.0 mi Calm Calm - N/A   Clear
9:55 AM 77.0 °F - 54.7 °F 46% 30.17 in 10.0 mi SSW 4.6 mph - N/A   Clear
10:14 AM 78.1 °F - 53.1 °F 42% 30.16 in 10.0 mi SSW 5.8 mph - N/A   Scattered Clouds
10:34 AM 79.5 °F - 52.7 °F 39% 30.17 in 10.0 mi SSW 8.1 mph - N/A   Scattered Clouds
10:55 AM 80.6 °F - 52.5 °F 38% 30.17 in 10.0 mi SW 5.8 mph - N/A   Clear
11:14 AM 81.7 °F - 52.7 °F 37% 30.17 in 10.0 mi SW 6.9 mph - N/A   Clear
11:34 AM 81.9 °F - 52.2 °F 36% 30.17 in 10.0 mi SW 6.9 mph - N/A   Scattered Clouds
11:55 AM 82.4 °F - 52.2 °F 35% 30.17 in 10.0 mi SW 6.9 mph - N/A   Scattered Clouds
12:14 PM 83.5 °F - 50.9 °F 32% 30.17 in 10.0 mi South 9.2 mph - N/A   Scattered Clouds
12:34 PM 83.3 °F - 50.0 °F 31% 30.17 in 10.0 mi SSE 4.6 mph - N/A   Mostly Cloudy
12:55 PM 83.8 °F - 51.8 °F 33% 30.15 in 10.0 mi SSW 8.1 mph - N/A   Scattered Clouds
1:14 PM 84.4 °F - 52.0 °F 33% 30.15 in 10.0 mi SSW 8.1 mph - N/A   Clear
1:34 PM 83.5 °F - 52.0 °F 34% 30.15 in 10.0 mi Calm Calm - N/A   Clear
1:55 PM 84.7 °F - 52.0 °F 32% 30.15 in 10.0 mi SSW 10.4 mph - N/A   Clear
2:14 PM 84.4 °F - 51.4 °F 32% 30.14 in 10.0 mi NW 3.5 mph - N/A   Clear
2:34 PM 85.3 °F - 52.2 °F 32% 30.14 in 10.0 mi SSW 6.9 mph - N/A   Scattered Clouds
2:54 PM 86.0 °F - 51.4 °F 30% 30.13 in 10.0 mi South 6.9 mph - N/A   Mostly Cloudy
3:15 PM 86.4 °F - 51.4 °F 30% 30.12 in 10.0 mi South 3.5 mph - N/A   Mostly Cloudy
3:34 PM 83.7 °F - 50.5 °F 32% 30.12 in 10.0 mi Calm Calm - N/A   Clear
3:55 PM 85.8 °F - 51.3 °F 30% 30.12 in 10.0 mi NNE 3.5 mph - N/A   Clear
4:14 PM 86.7 °F - 51.3 °F 29% 30.11 in 10.0 mi West 3.5 mph - N/A   Scattered Clouds
4:34 PM 86.5 °F - 50.9 °F 29% 30.11 in 10.0 mi SSW 6.9 mph - N/A   Scattered Clouds
4:55 PM 86.7 °F - 50.4 °F 28% 30.11 in 10.0 mi Calm Calm - N/A   Clear
5:14 PM 86.4 °F - 50.7 °F 29% 30.11 in 10.0 mi Calm Calm - N/A   Clear
5:35 PM 86.5 °F - 52.2 °F 31% 30.10 in 10.0 mi SW 8.1 mph - N/A   Clear
5:54 PM 85.3 °F - 51.4 °F 31% 30.10 in 10.0 mi Calm Calm - N/A   Clear
6:14 PM 85.8 °F - 51.8 °F 31% 30.09 in 10.0 mi WSW 3.5 mph - N/A   Clear
6:35 PM 85.8 °F - 52.7 °F 32% 30.09 in 10.0 mi SW 3.5 mph - N/A   Clear
6:54 PM 85.5 °F - 52.2 °F 32% 30.09 in 10.0 mi WSW 3.5 mph - N/A   Clear
7:14 PM 85.3 °F - 52.5 °F 32% 30.09 in 10.0 mi SW 3.5 mph - N/A   Clear
7:35 PM 85.1 °F - 52.5 °F 32% 30.09 in 10.0 mi SSW 4.6 mph - N/A   Clear
7:54 PM 84.4 °F 82.9 °F 53.8 °F 35% 30.10 in 10.0 mi South 4.6 mph - N/A   Clear
8:14 PM 83.1 °F 81.9 °F 53.8 °F 36% 30.10 in 10.0 mi South 8.1 mph - N/A   Clear
8:35 PM 81.5 °F 80.9 °F 54.3 °F 39% 30.10 in 10.0 mi SSE 5.8 mph - N/A   Clear
8:54 PM 79.5 °F - 54.9 °F 42% 30.09 in 10.0 mi SSE 4.6 mph - N/A   Clear
9:14 PM 77.2 °F - 55.8 °F 47% 30.10 in 10.0 mi Calm Calm - N/A   Clear
9:34 PM 70.9 °F - 58.6 °F 65% 30.09 in 10.0 mi SSW 5.8 mph - N/A   Clear
9:54 PM 68.5 °F - 58.3 °F 70% 30.10 in 10.0 mi Calm Calm - N/A   Clear
10:14 PM 66.2 °F - 58.5 °F 76% 30.10 in 10.0 mi SSW 3.5 mph - N/A   Clear
10:35 PM 64.9 °F - 58.1 °F 78% 30.10 in 10.0 mi Calm Calm - N/A   Clear
10:54 PM 64.4 °F - 57.9 °F 79% 30.10 in 10.0 mi WNW 4.6 mph - N/A   Clear
11:14 PM 66.0 °F - 57.9 °F 75% 30.11 in 10.0 mi WNW 6.9 mph - N/A   Clear
11:35 PM 62.8 °F - 57.6 °F 83% 30.11 in 10.0 mi Calm Calm - N/A   Clear
11:54 PM 64.6 °F - 57.6 °F 78% 30.11 in 10.0 mi Calm Calm - N/A   Clear